Location: Azul
(36.7830°S, 59.8500°W)
Time: 16:47:54
(UTC-03:00)

Hubble Space Telescope - Pass Details

Date: 03 December 2023
Orbit: 516 x 519 km, 28.5° (Epoch: 26 February)

Event Time Altitude Azimuth Distance (km) Brightness Sun altitude
Exits shadow 04:17:37 20° 334° (NNW) 1,259 2.1 -13.3°
Maximum altitude 04:19:03 24° 5° (N) 1,113 2.0 -13.1°
Drops below altitude 10° 04:22:23 10° 60° (ENE) 1,766 3.6 -12.6°
Sets 04:24:55 0° 73° (ENE) 2,654 4.8 -12.2°
